CSN699 ZGGG-KJFK

Flight info

Callsign CSN699
Flight time N/A
Altitude 29100
Route TEPID W90 NOLON A599 KIGUN/K0932S0950 A599 ELNEX G204 MULOV V73 SUPAR B221 NINAS G327 LAMEN/N0500F310 A593 SADLI Y590 BEDAR Y591 FUE V28 DGC Y14 SAMON Z17 MRE V13 TIKYU Y13 SIRAO V13 CHE V5 BISEI DCT TBE/N0486F330 B932 ODERI/K0898F330 M152 BAMOK/N0480F330 B932 MORLY DCT NULUK DCT 61N160W/N0479F350 DCT TED J511 GKN J124 ORT DCT EMSOW DCT 63N130W 62N120W 59N110W/N0481F370 5530N10000W DCT MISAX DCT SSM DCT BUF DCT SFK DCT FQM DCT WLKES PUCKY1
Aircraft B77W/H-SDE1E2E3FGHIJ2J3J4J5M1RWXY/LB1D1

Departure

Time 2026-04-30 04:43
Airport Guangzhou Baiyun International Airport (ZGGG)

Arrival

Time N/A
Airport John F. Kennedy International Airport (KJFK)
Time Latitude Longitude Altitude Speed Heading
2026-04-30 04:02 23.40183 113.30163 63 ft 0 kts 194°
2026-04-30 04:29 23.40189 113.30165 54 ft 4 kts 192°
2026-04-30 04:29 23.40216 113.30169 57 ft 4 kts 179°
2026-04-30 04:29 23.40242 113.30165 63 ft 4 kts 156°
2026-04-30 04:30 23.40262 113.30149 59 ft 4 kts 114°
2026-04-30 04:30 23.40265 113.30142 63 ft 0 kts 104°
2026-04-30 04:33 23.40258 113.30174 56 ft 13 kts 104°
2026-04-30 04:33 23.40233 113.30286 62 ft 16 kts 100°
2026-04-30 04:34 23.40273 113.30383 58 ft 14 kts 47°
2026-04-30 04:34 23.40336 113.30455 63 ft 13 kts 47°
2026-04-30 04:34 23.40353 113.30534 57 ft 10 kts 101°
2026-04-30 04:34 23.40337 113.30610 56 ft 14 kts 104°
2026-04-30 04:35 23.40305 113.30751 61 ft 12 kts 104°
2026-04-30 04:35 23.40283 113.30828 56 ft 11 kts 125°
2026-04-30 04:35 23.40214 113.30881 58 ft 14 kts 123°
2026-04-30 04:35 23.40185 113.30984 59 ft 13 kts 104°
2026-04-30 04:36 23.40131 113.31021 62 ft 10 kts 188°
2026-04-30 04:36 23.40045 113.31000 62 ft 15 kts 193°
2026-04-30 04:36 23.39941 113.30973 55 ft 15 kts 193°
2026-04-30 04:36 23.39836 113.30945 55 ft 15 kts 193°
2026-04-30 04:37 23.39705 113.30909 55 ft 21 kts 194°
2026-04-30 04:37 23.39564 113.30871 60 ft 21 kts 194°
2026-04-30 04:37 23.39424 113.30833 60 ft 21 kts 194°
2026-04-30 04:37 23.39283 113.30795 58 ft 21 kts 194°
2026-04-30 04:38 23.39143 113.30757 54 ft 21 kts 194°
2026-04-30 04:38 23.39002 113.30719 56 ft 21 kts 194°
2026-04-30 04:38 23.38861 113.30681 63 ft 21 kts 194°
2026-04-30 04:38 23.38720 113.30643 60 ft 21 kts 193°
2026-04-30 04:39 23.38580 113.30605 63 ft 21 kts 194°
2026-04-30 04:39 23.38439 113.30567 56 ft 21 kts 194°
2026-04-30 04:39 23.38299 113.30529 63 ft 21 kts 194°
2026-04-30 04:39 23.38157 113.30491 60 ft 22 kts 194°
2026-04-30 04:40 23.38005 113.30450 57 ft 23 kts 193°
2026-04-30 04:40 23.37851 113.30408 55 ft 23 kts 193°
2026-04-30 04:40 23.37708 113.30370 55 ft 13 kts 194°
2026-04-30 04:40 23.37631 113.30373 54 ft 12 kts 137°
2026-04-30 04:41 23.37600 113.30453 61 ft 12 kts 106°
2026-04-30 04:41 23.37602 113.30533 57 ft 6 kts 52°
2026-04-30 04:41 23.37631 113.30550 59 ft 5 kts 19°
2026-04-30 04:41 23.37641 113.30553 61 ft 0 kts 14°
2026-04-30 04:42 23.37652 113.30556 58 ft 14 kts 14°
2026-04-30 04:42 23.38008 113.30651 60 ft 91 kts 14°
2026-04-30 04:43 23.38842 113.30877 62 ft 158 kts 14°
2026-04-30 04:43 23.40103 113.31213 86 ft 209 kts 13°
2026-04-30 04:43 23.41494 113.31714 526 ft 215 kts 27°
2026-04-30 04:43 23.42792 113.32499 1144 ft 213 kts 27°
2026-04-30 04:44 23.44104 113.33241 1802 ft 213 kts 25°
2026-04-30 04:44 23.45481 113.33989 2036 ft 230 kts 26°
2026-04-30 04:44 23.46933 113.34803 2451 ft 239 kts 26°
2026-04-30 04:44 23.48471 113.35630 2723 ft 253 kts 22°
2026-04-30 04:45 23.50121 113.36383 3264 ft 260 kts 24°
2026-04-30 04:45 23.51757 113.37260 3901 ft 266 kts 26°
2026-04-30 04:45 23.53386 113.38246 4474 ft 270 kts 35°
2026-04-30 04:45 23.54826 113.39585 4947 ft 276 kts 41°
2026-04-30 04:46 23.56266 113.40987 5553 ft 278 kts 42°
2026-04-30 04:46 23.57698 113.42430 6078 ft 283 kts 40°
2026-04-30 04:46 23.59184 113.43859 6678 ft 287 kts 41°
2026-04-30 04:46 23.60675 113.45337 7266 ft 291 kts 42°
2026-04-30 04:47 23.62153 113.46864 7727 ft 297 kts 41°
2026-04-30 04:47 23.63679 113.48413 8183 ft 302 kts 40°
2026-04-30 04:47 23.65245 113.49963 8696 ft 306 kts 40°
2026-04-30 04:47 23.66848 113.51516 9229 ft 310 kts 40°
2026-04-30 04:48 23.68475 113.53088 9779 ft 314 kts 40°
2026-04-30 04:48 23.70122 113.54687 10274 ft 320 kts 40°
2026-04-30 04:48 23.71827 113.56346 10489 ft 338 kts 40°
2026-04-30 04:48 23.73628 113.58107 10643 ft 357 kts 40°
2026-04-30 04:49 23.75525 113.59962 10806 ft 376 kts 40°
2026-04-30 04:49 23.77512 113.61904 11045 ft 391 kts 40°
2026-04-30 04:49 23.79566 113.63915 11462 ft 401 kts 40°
2026-04-30 04:49 23.81661 113.65967 11973 ft 407 kts 39°
2026-04-30 04:50 23.83779 113.68044 12571 ft 411 kts 39°
2026-04-30 04:50 23.85912 113.70139 13162 ft 414 kts 39°
2026-04-30 04:50 23.88037 113.72223 13712 ft 418 kts 39°
2026-04-30 04:50 23.90212 113.74355 14286 ft 422 kts 39°
2026-04-30 04:51 23.92401 113.76504 14840 ft 424 kts 39°
2026-04-30 04:51 23.94607 113.78669 15410 ft 427 kts 39°
2026-04-30 04:51 23.96820 113.80841 15908 ft 430 kts 39°
2026-04-30 04:51 23.99053 113.83035 16470 ft 433 kts 39°
2026-04-30 04:52 24.01298 113.85243 16991 ft 436 kts 39°
2026-04-30 04:52 24.03561 113.87470 17469 ft 439 kts 39°
2026-04-30 04:52 24.05842 113.89714 17951 ft 443 kts 39°
2026-04-30 04:52 24.08138 113.91975 18448 ft 445 kts 39°
2026-04-30 04:53 24.10468 113.94218 18927 ft 447 kts 36°
2026-04-30 04:53 24.12979 113.96224 19328 ft 448 kts 30°
2026-04-30 04:53 24.15623 113.98025 19768 ft 450 kts 28°
2026-04-30 04:53 24.18295 113.99830 20212 ft 452 kts 28°
2026-04-30 04:54 24.20976 114.01658 20634 ft 455 kts 29°
2026-04-30 04:54 24.23666 114.03513 21047 ft 458 kts 29°
2026-04-30 04:54 24.26368 114.05389 21447 ft 461 kts 29°
2026-04-30 04:54 24.29089 114.07275 21816 ft 464 kts 28°
2026-04-30 04:55 24.31866 114.09096 22180 ft 465 kts 24°
2026-04-30 04:55 24.34797 114.10587 22545 ft 464 kts 17°
2026-04-30 04:55 24.37845 114.11751 22932 ft 464 kts 12°
2026-04-30 04:55 24.40972 114.12588 23289 ft 462 kts
2026-04-30 04:56 24.44138 114.13254 23639 ft 464 kts
2026-04-30 04:56 24.47322 114.13908 23975 ft 466 kts
2026-04-30 04:56 24.50519 114.14567 24299 ft 469 kts
2026-04-30 04:56 24.53733 114.15239 24622 ft 471 kts
2026-04-30 04:57 24.56956 114.15922 24925 ft 474 kts
2026-04-30 04:57 24.60206 114.16619 25214 ft 477 kts
2026-04-30 04:57 24.63468 114.17322 25511 ft 479 kts
2026-04-30 04:57 24.66739 114.18030 25815 ft 480 kts
2026-04-30 04:58 24.70028 114.18742 26078 ft 482 kts
2026-04-30 04:58 24.73332 114.19457 26303 ft 486 kts
2026-04-30 04:58 24.76650 114.20173 26512 ft 488 kts
2026-04-30 04:58 24.79998 114.20896 26714 ft 491 kts
2026-04-30 04:59 24.83355 114.21625 26952 ft 493 kts
2026-04-30 04:59 24.86722 114.22355 27247 ft 494 kts
2026-04-30 04:59 24.88952 114.22839 27431 ft 495 kts
2026-04-30 04:59 24.93491 114.23821 27783 ft 498 kts
2026-04-30 05:00 24.96890 114.24558 28029 ft 500 kts
2026-04-30 05:00 24.99156 114.25050 28190 ft 501 kts
2026-04-30 05:00 25.02585 114.25796 28416 ft 503 kts
2026-04-30 05:00 25.06014 114.26656 28640 ft 509 kts 12°
2026-04-30 05:01 25.09361 114.28027 28834 ft 517 kts 20°
2026-04-30 05:01 25.12576 114.29863 29052 ft 524 kts 26°
2026-04-30 05:01 25.15599 114.32157 29158 ft 530 kts 33°
2026-04-30 05:02 25.21441 114.37178 29217 ft 534 kts 33°
2026-04-30 05:02 25.27285 114.42213 29216 ft 532 kts 33°
2026-04-30 05:03 25.33175 114.47205 29219 ft 535 kts 32°
2026-04-30 05:03 25.39109 114.52189 29227 ft 535 kts 32°
2026-04-30 05:04 25.45026 114.57175 29226 ft 533 kts 32°
2026-04-30 05:04 25.50929 114.62161 29219 ft 534 kts 32°